Date,TemperatureHighF,TemperatureAvgF,TemperatureLowF,DewpointHighF,DewpointAvgF,DewpointLowF,HumidityHigh,HumidityAvg,HumidityLow,PressureMaxIn,PressureMinIn,WindSpeedMaxMPH,WindSpeedAvgMPH,GustSpeedMaxMPH,PrecipitationSumIn
2013-11-1,60,49,45,58,44,40,95,85,73,29.68,29.10,15,6,23,0.13
2013-11-2,45,42,32,44,40,30,100,93,88,30.15,29.66,6,2,11,0.20
2013-11-3,45,35,26,38,31,24,96,85,69,30.49,30.15,3,1,7,0.01
2013-11-4,48,41,33,37,32,28,92,70,47,30.51,30.31,8,4,17,0.00
2013-11-5,55,50,44,48,44,37,87,78,72,30.37,30.17,8,3,17,0.00
2013-11-6,55,51,41,52,47,38,94,85,66,30.17,29.76,10,6,21,0.38
2013-11-7,43,38,33,39,32,27,94,78,56,30.16,30.00,9,4,18,0.02
2013-11-8,44,35,28,32,28,26,91,76,53,30.32,30.15,6,2,13,0.00
2013-11-9,53,46,37,42,36,30,76,69,61,30.21,29.81,12,6,21,0.01
2013-11-10,45,40,30,36,32,26,89,72,59,30.30,29.92,11,5,23,0.00
2013-11-11,42,35,27,38,30,22,93,83,72,30.36,30.07,9,4,16,0.15
2013-11-12,32,26,21,23,19,16,87,75,60,30.60,30.36,10,4,18,0.01
2013-11-13,39,28,17,26,19,15,90,69,42,30.59,30.18,9,3,16,0.01
2013-11-14,51,40,32,31,24,19,63,53,42,30.19,29.97,7,4,17,0.00
2013-11-15,52,44,37,32,28,25,68,55,41,30.08,29.99,6,2,15,0.00
2013-11-16,56,47,38,53,42,30,92,83,68,30.12,29.79,13,6,23,0.01
2013-11-17,62,56,44,59,53,40,94,90,79,29.80,29.19,20,10,30,0.83
2013-11-18,46,39,34,41,31,24,85,74,68,30.16,29.44,17,9,30,0.00
2013-11-19,39,32,26,27,21,-100,86,68,55,30.46,30.16,7,-20,16,0.00
2013-11-20,45,34,23,33,26,21,94,74,48,30.49,30.27,9,2,19,0.00
2013-11-21,48,44,41,44,38,30,94,79,64,30.32,30.20,9,4,17,0.09
2013-11-22,44,38,26,43,35,23,96,90,78,30.40,30.16,11,3,19,0.10
2013-11-23,26,10,20,24,-54,-100,91,29,59,30.57,30.30,15,-599,23,0.00
2013-11-24,23,8,15,12,-59,-100,83,25,59,30.65,30.43,8,-626,14,0.00
2013-11-25,-200,0,200,-100,-100,-100,0,0,100,30.44,30.06,0,-999,0,0.00
2013-11-26,-200,0,200,-100,-100,-100,0,0,100,30.07,29.92,0,-999,0,0.00
2013-11-27,24,7,19,16,-66,-100,81,21,59,30.24,29.92,13,-696,21,0.00
2013-11-28,-200,0,200,-100,-100,-100,0,0,100,30.41,30.24,0,-999,0,0.00
2013-11-29,32,8,24,23,-67,-100,88,19,61,30.68,30.40,1,-728,4,0.01
2013-11-30,43,12,31,31,-61,-100,75,20,59,30.58,30.11,12,-691,16,0.00